Location: Chervonnoye
(48.6000°N, 34.4000°E)
Time: 21:15:13
(UTC+00:00)

RS-44 - Pass Details

Date: 03 December 2021
Orbit: 1175 x 1510 km, 82.5° (Epoch: 19 January)

Event Time Altitude Azimuth Distance (km) Brightness Sun altitude
Rises 19:42:13 0° 254° (WSW) 4,083 ? -55.7°
Enters shadow 19:42:57 - 257° (WSW) 3,891 ? -55.8°
Exits shadow 19:56:21 - 355° (N) 3,692 ? -57.4°
Sets 19:58:00 0° 3° (N) 4,108 ? -57.6°
